Weather Roundup
Issued by NWS Springfield, MO

Home | Current Version | Previous Version | Text Only | Print | Product List | Glossary On
Versions: 1 2 3 4 5 6 7 8 9 10 11 12 13 14 15 16 17 18 19 20 21 22 23 24 25 26 27 28 29 30 31 32 33 34 35 36 37 38 39 40 41 42 43 44 45 46 47 48 49 50
000
NZUS99 KSGF 021107
HRRSGF

HOURLY WEATHER
NATIONAL WEATHER SERVICE SPRINGFIELD MO
600 AM CDT THU OCT 02 2014

......SGF CWA......

CITY           SKY/WX    TMP DP  RH WIND       PRES   REMARKS
SPRINGFIELD    TSTM      72  69  90 S17       29.81R FOG
JOPLIN         TSTM      66  64  93 NW16G22   29.85R
WEST PLAINS    PTCLDY    69  66  90 S5        29.88R
ROLLA          CLOUDY    67  65  93 NE8       29.85R
OSAGE BEACH    CLOUDY    66  63  88 NE8       29.82F
BRANSON        PTCLDY    68  68 100 SE5       29.83S

......SURROUNDING SGF CWA......

CITY           SKY/WX    TMP DP  RH WIND       PRES   REMARKS
CHANUTE        CLOUDY    70  64  81 SE9       29.72F
PARSONS        LGT RAIN  70  68  93 SE8       29.70F
COFFEYVILLE    CLOUDY    71  69  93 S13       29.74R
EMPORIA        PTCLDY    69  68  96 S9        29.70F
GROVE OK       CLOUDY    75  70  83 S6        29.80R
ROGERS AR      MOCLDY    72  68  87 S10       29.83R
SILOAM SPRINGS CLOUDY    73  64  73 S15G21    29.82R
HARRISON AR    CLOUDY    74  69  85 S8        29.84R
NEAR YELLVILLE MOCLDY    72  64  78 CALM      29.84R

......KANSAS AND MISSOURI......

CITY           SKY/WX    TMP DP  RH WIND       PRES   REMARKS
KANSAS CTY INT CLOUDY    67  64  90 SE12      29.73S
DOWNTOWN KC    MOCLDY    68  64  87 VRB3      29.72F
COLUMBIA       TSTM      65  64  97 S14       29.81S
SEDALIA        TSTM      68  65  90 SW7       29.81R
ST JOSEPH      CLOUDY    66  64  93 NE5       29.75R
ST LOUIS       LGT RAIN  68  65  90 E6        29.88S
SPIRIT OF STL  CLOUDY    66  64  93 CALM      29.87R
KIRKSVILLE     CLOUDY    63  63 100 SE3       29.80F
WICHITA        PTCLDY    69  64  84 SW3       29.71R
TOPEKA         PTCLDY    65  65 100 NE5       29.71S
OLATHE         MOCLDY    66  65  96 SE6       29.73S

......TENNESSEE......

CITY           SKY/WX    TMP DP  RH WIND       PRES   REMARKS
MEMPHIS        PTCLDY    72  66  81 S9        29.92R
NASHVILLE      PTCLDY    64  59  83 S5        30.02R

......ARKANSAS.......

CITY           SKY/WX    TMP DP  RH WIND       PRES   REMARKS
FAYETTEVILLE   CLOUDY    73  70  90 S10G21    29.83R
FT SMITH       CLOUDY    75  70  84 E5        29.81R
LITTLE ROCK    CLOUDY    75  71  87 S10       29.86R

......OKLAHOMA.......

CITY           SKY/WX    TMP DP  RH WIND       PRES   REMARKS
TULSA          TSTM      78  67  68 SW9G24    29.75R
PONCA CITY     PTCLDY    75  66  73 S14       29.70R
MCALESTER      CLOUDY    77  71  82 S12G20    29.79R
OKLAHOMA CITY  PTCLDY    70  68  93 SE10      29.72R

......IOWA............

CITY           SKY/WX    TMP DP  RH WIND       PRES   REMARKS
DES MOINES     FOG       65  63  93 SE8       29.79R VSB 3/4
QUAD CITIES    CLOUDY    63  61  93 CALM      29.83R FOG

......ILLINOIS........

CITY           SKY/WX    TMP DP  RH WIND       PRES   REMARKS
QUINCY         CLOUDY    64  61  90 S7        29.80R
CHICAGO        CLOUDY    64  57  78 CALM      29.85S



USA.gov is the U.S. government's official web portal to all federal, state and local government web resources and services.